Weather History for Monett, MO

Change the Weather History Date:

Monday, December 10, 2012

  Actual Average (KJLN) Record (KJLN)
Temperature  
Mean Temperature 26 °F 38 °F  
Max Temperature 32 °F 48 °F 74 °F (1996)
Min Temperature 21 °F 28 °F 0 °F (1995)
Degree Days  
Heating Degree Days 38 27  
Month to date heating degree days 253  
Since 1 July heating degree days 1010  
Cooling Degree Days 0 0  
Month to date cooling degree days 0  
Year to date cooling degree days 1698  
Moisture  
Dew Point 18 °F    
Average Humidity 73    
Maximum Humidity 86    
Minimum Humidity 60    
Precipitation  
Precipitation 0.00 in 0.09 in 1.51 in (1985)
Month to date precipitation 1.02  
Year to date precipitation 44.75  
Sea Level Pressure  
Sea Level Pressure 30.03 in    
Wind  
Wind Speed 10 mph (WNW)    
Max Wind Speed 16 mph    
Max Gust Speed 24 mph    
Visibility 10 miles    
Events      
T = Trace of Precipitation, MM = Missing Value Source: NWS Daily Summary

Daily Weather History Graph

Daily Weather History Graph

Search for Another Location

Airport:

Trip Planner

Search our weather history database for the weather conditions in past years. The results will help you decide how hot, cold, wet, or windy it might be!

Date:

Astronomy

Dec. 10, 2012 Rise Set
Actual Time 7:18 AM CST 4:59 PM CST
Civil Twilight 6:49 AM CST 5:28 PM CST
Nautical Twilight 6:17 AM CST 6:00 PM CST
Astronomical Twilight 5:45 AM CST 6:32 PM CST
Moon 4:05 AM CST (12/10) 2:47 PM CST (12/10)
Length of Visible Light 10h 38m
Length of Day
9h 41m
Waning Crescent, 10% of the Moon is Illuminated
Dec 10
Waning Crescent
Dec 13
New
Dec 19
First Quarter
Dec 28
Full
Jan 4
Last Quarter

Hourly Weather History & Observations

Time (CST) Temp. Windchill Dew Point Humidity Pressure Visibility Wind Dir Wind Speed Gust Speed Precip Events Conditions
12:15 AM 26.6 °F 16.8 °F 17.6 °F 69% 30.03 in 10.0 mi NW 10.4 mph - N/A   Clear
12:35 AM 26.6 °F 15.2 °F 15.8 °F 64% 30.02 in 10.0 mi NW 13.8 mph 19.6 mph N/A   Clear
12:55 AM 26.6 °F 14.7 °F 15.8 °F 64% 30.01 in 10.0 mi NW 15.0 mph 21.9 mph N/A   Clear
1:15 AM 26.6 °F 16.8 °F 17.6 °F 69% 30.00 in 10.0 mi NW 10.4 mph - N/A   Clear
1:55 AM 24.8 °F 14.0 °F 17.6 °F 74% 29.99 in 10.0 mi NW 11.5 mph - N/A   Clear
2:15 AM 24.8 °F 14.0 °F 17.6 °F 74% 30.00 in 10.0 mi NW 11.5 mph - N/A   Clear
2:35 AM 24.8 °F 12.4 °F 17.6 °F 74% 30.00 in 10.0 mi NW 15.0 mph 18.4 mph N/A   Clear
2:55 AM 24.8 °F 12.9 °F 17.6 °F 74% 30.00 in 10.0 mi NW 13.8 mph - N/A   Clear
3:15 AM 23.0 °F 9.6 °F 15.8 °F 74% 29.99 in 10.0 mi NW 16.1 mph - N/A   Scattered Clouds
3:35 AM 23.0 °F 10.1 °F 14.0 °F 68% 29.99 in 10.0 mi NW 15.0 mph 20.7 mph N/A   Mostly Cloudy
3:55 AM 23.0 °F 10.6 °F 14.0 °F 68% 30.00 in 10.0 mi NW 13.8 mph 20.7 mph N/A   Overcast
4:15 AM 23.0 °F 10.6 °F 14.0 °F 68% 30.00 in 10.0 mi NW 13.8 mph 24.2 mph N/A   Overcast
4:35 AM 23.0 °F 11.1 °F 14.0 °F 68% 30.01 in 10.0 mi NW 12.7 mph - N/A   Overcast
4:55 AM 23.0 °F 13.1 °F 14.0 °F 68% 30.00 in 10.0 mi NW 9.2 mph - N/A   Overcast
5:15 AM 23.0 °F 12.4 °F 14.0 °F 68% 30.01 in 10.0 mi NW 10.4 mph - N/A   Overcast
5:55 AM 23.0 °F 11.7 °F 14.0 °F 68% 30.02 in 10.0 mi NW 11.5 mph 17.3 mph N/A   Overcast
6:15 AM 23.0 °F 11.1 °F 14.0 °F 68% 30.02 in 10.0 mi NW 12.7 mph 19.6 mph N/A   Overcast
6:35 AM 23.0 °F 13.1 °F 14.0 °F 68% 30.03 in 10.0 mi WNW 9.2 mph - N/A   Overcast
6:55 AM 23.0 °F 11.7 °F 15.8 °F 74% 30.04 in 10.0 mi NW 11.5 mph - N/A   Overcast
7:15 AM 23.0 °F 11.7 °F 15.8 °F 74% 30.05 in 10.0 mi NW 11.5 mph 19.6 mph N/A   Overcast
7:35 AM 23.0 °F 12.4 °F 15.8 °F 74% 30.05 in 10.0 mi NW 10.4 mph 17.3 mph N/A   Overcast
7:55 AM 23.0 °F 11.1 °F 17.6 °F 80% 30.06 in 10.0 mi NW 12.7 mph - N/A   Overcast
8:15 AM 23.0 °F 12.4 °F 17.6 °F 80% 30.06 in 10.0 mi WNW 10.4 mph 16.1 mph N/A   Overcast
8:35 AM 23.0 °F 12.4 °F 17.6 °F 80% 30.06 in 10.0 mi NW 10.4 mph 16.1 mph N/A   Overcast
8:55 AM 23.0 °F 11.7 °F 17.6 °F 80% 30.05 in 10.0 mi NW 11.5 mph - N/A   Overcast
9:35 AM 23.0 °F 10.6 °F 17.6 °F 80% 30.05 in 10.0 mi NW 13.8 mph - N/A   Overcast
9:55 AM 23.0 °F 12.4 °F 17.6 °F 80% 30.05 in 10.0 mi WNW 10.4 mph - N/A   Overcast
10:15 AM 24.8 °F 14.0 °F 17.6 °F 74% 30.05 in 10.0 mi NW 11.5 mph - N/A   Overcast
10:35 AM 24.8 °F 16.1 °F 17.6 °F 74% 30.05 in 10.0 mi WNW 8.1 mph - N/A   Overcast
10:55 AM 24.8 °F 15.3 °F 17.6 °F 74% 30.03 in 10.0 mi NW 9.2 mph - N/A   Overcast
11:15 AM 26.6 °F 17.5 °F 19.4 °F 74% 30.05 in 10.0 mi WNW 9.2 mph - N/A   Overcast
11:35 AM 28.4 °F 19.1 °F 19.4 °F 69% 30.04 in 10.0 mi WNW 10.4 mph - N/A   Overcast
11:55 AM 30.2 °F 21.3 °F 19.4 °F 64% 30.05 in 10.0 mi WNW 10.4 mph - N/A   Mostly Cloudy
12:15 PM 28.4 °F 18.5 °F 19.4 °F 69% 30.03 in 10.0 mi NNW 11.5 mph - N/A   Scattered Clouds
12:35 PM 30.2 °F 20.2 °F 19.4 °F 64% 30.03 in 10.0 mi NW 12.7 mph - N/A   Scattered Clouds
12:55 PM 30.2 °F 21.9 °F 19.4 °F 64% 30.02 in 10.0 mi NNW 9.2 mph - N/A   Scattered Clouds
1:15 PM 30.2 °F 21.3 °F 19.4 °F 64% 30.01 in 10.0 mi WNW 10.4 mph - N/A   Scattered Clouds
1:55 PM 32.0 °F 23.6 °F 19.4 °F 60% 30.01 in 10.0 mi NW 10.4 mph - N/A   Scattered Clouds
2:15 PM 32.0 °F 24.2 °F 19.4 °F 60% 30.00 in 10.0 mi WNW 9.2 mph 16.1 mph N/A   Clear
2:35 PM 32.0 °F 23.6 °F 19.4 °F 60% 30.00 in 10.0 mi NW 10.4 mph - N/A   Clear
2:55 PM 32.0 °F 24.8 °F 21.2 °F 64% 30.01 in 10.0 mi WNW 8.1 mph - N/A   Clear
3:15 PM 32.0 °F 24.2 °F 21.2 °F 64% 30.01 in 10.0 mi WNW 9.2 mph - N/A   Clear
3:35 PM 32.0 °F 23.6 °F 21.2 °F 64% 30.01 in 10.0 mi WNW 10.4 mph - N/A   Clear
3:55 PM 32.0 °F 24.2 °F 19.4 °F 60% 30.02 in 10.0 mi WNW 9.2 mph - N/A   Clear
4:15 PM 30.2 °F 22.6 °F 19.4 °F 64% 30.01 in 10.0 mi WNW 8.1 mph - N/A   Clear
4:35 PM 30.2 °F 24.3 °F 19.4 °F 64% 30.00 in 10.0 mi NW 5.8 mph - N/A   Clear
4:55 PM 28.4 °F 22.2 °F 19.4 °F 69% 30.01 in 10.0 mi West 5.8 mph - N/A   Clear
5:15 PM 28.4 °F 24.6 °F 19.4 °F 69% 30.02 in 10.0 mi WNW 3.5 mph - N/A   Clear
5:35 PM 28.4 °F 23.3 °F 19.4 °F 69% 30.03 in 10.0 mi West 4.6 mph - N/A   Clear
5:55 PM 26.6 °F 20.0 °F 19.4 °F 74% 30.03 in 10.0 mi West 5.8 mph - N/A   Clear
6:15 PM 26.6 °F 21.2 °F 19.4 °F 74% 30.03 in 10.0 mi West 4.6 mph - N/A   Clear
6:35 PM 26.6 °F 21.2 °F 19.4 °F 74% 30.03 in 10.0 mi West 4.6 mph - N/A   Clear
6:55 PM 26.6 °F 21.2 °F 19.4 °F 74% 30.03 in 10.0 mi West 4.6 mph - N/A   Clear
7:15 PM 26.6 °F 22.6 °F 19.4 °F 74% 30.03 in 10.0 mi West 3.5 mph - N/A   Clear
7:35 PM 23.0 °F - 17.6 °F 80% 30.03 in 10.0 mi Calm Calm - N/A   Clear
7:55 PM 23.0 °F - 17.6 °F 80% 30.03 in 10.0 mi Calm Calm - N/A   Clear
8:15 PM 24.8 °F 20.5 °F 19.4 °F 80% 30.03 in 10.0 mi WSW 3.5 mph - N/A   Clear
8:35 PM 23.0 °F - 19.4 °F 86% 30.04 in 10.0 mi Calm Calm - N/A   Clear
8:55 PM 23.0 °F 18.4 °F 19.4 °F 86% 30.04 in 10.0 mi SW 3.5 mph - N/A   Clear
9:15 PM 23.0 °F 17.0 °F 19.4 °F 86% 30.04 in 10.0 mi SW 4.6 mph - N/A   Clear
9:35 PM 21.2 °F 16.4 °F 17.6 °F 86% 30.04 in 10.0 mi South 3.5 mph - N/A   Clear
9:55 PM 21.2 °F 16.4 °F 17.6 °F 86% 30.05 in 10.0 mi SSW 3.5 mph - N/A   Clear
10:15 PM 21.2 °F 14.9 °F 17.6 °F 86% 30.05 in 10.0 mi South 4.6 mph - N/A   Clear
10:35 PM 21.2 °F 16.4 °F 17.6 °F 86% 30.05 in 10.0 mi South 3.5 mph - N/A   Clear
10:55 PM 21.2 °F 16.4 °F 17.6 °F 86% 30.05 in 10.0 mi South 3.5 mph - N/A   Clear
11:15 PM 21.2 °F 16.4 °F 17.6 °F 86% 30.06 in 10.0 mi SSW 3.5 mph - N/A   Clear
11:55 PM 21.2 °F 16.4 °F 17.6 °F 86% 30.06 in 10.0 mi SSE 3.5 mph - N/A   Clear